SCP
0 0 -0 0 0 0 -0 0 0 0 0 0 0 0 0 -0 -0 -0 -0 -0 0 0 -0 0 0 -0 -0 -0 -0 -0 -0 -0 -0 -0 -0 -0 -0 0 0 0 0 -0 -0
-0 -0 0 0 0 0 -0 -0 0 0 0 0 0 0 -0 0 -0 -0 -0 -0 0 -0 -0 -0 -0 -0 -0 -0 -0 -0 -0 -0 -0 -0 0 -0 -0 -0 -0 -0 -0 -0 -0
-0 -0 0 0 0 0 -0 0 -0 -0 0 0 -0 -0 0 0 -0 -0 -0 -0 -0 -0 -0 -0 -0 -0 -0 -0 -0 -0 0 0 -0 0 -0 -0 -0 -0 -0 0 -0 -0 -0
-0 -0 -0 0 -0 -0 0 -0 -0 0 -0 -0 0 -0 0 0 0 -0 -0 0 0 0 0 0 0 0 0 0 0 -0 0 0 -0 -0 -0 -0 -0 0 0 0 0 -0 -0
-0 -0 -0 -0 -0 -0 -0 0 -0 0 0 -0 -0 -0 0 0 0 0 0 0 0 0 0 0 0 0 0 0 0 0 0 0 -0 -0 0 0 -0 0 0 0 0 -0 -0
-0 -0 -0 -0 -0 0 -0 -0 0 0 -0 -0 -0 -0 0 0 0 0 0 0 0 0 0 0 0 0 0 0 0 0 -0 -0 -0 0 0 0 0 0 0 0 0 -0 -0
-0 -0 -0 -0 -0 0 -0 -0 -0 -0 -0 -0 -0 0 0 0 0 0 0 0 0 0 0 0 0 0 0 0 0 -0 0 0 0 0 0 0 0 0 0 0 0 0 -0
-1 -0 -0 -0 -0 -0 -0 -0 -0 -0 -0 -0 -0 0 0 0 0 0 0 0 0 0 0 0 0 0 -0 -0 -0 0 0 0 0 -0 0 0 0 0 0 0 0 0 0
-0 -0 -0 -0 -0 -0 -0 -0 -0 -0 -0 -0 -0 0 0 0 0 0 -0 -0 0 0 0 -0 -0 -0 -0 -0 -0 0 -0 -0 0 -0 0 0 -0 0 -0 0 0 0 0
-0 -0 -0 -0 -0 -0 -0 -0 -0 -0 -0 -0 -0 -0 -0 -0 -0 -0 -0 -0 -0 -0 -0 -0 -0 -0 -0 -0 -0 -0 -0 -0 0 0 0 0 -0 -0 0 0 0 0 0
-0 -0 -0 -0 -0 -0 -0 -0 -0 -0 -0 -0 -0 -0 -0 -0 -0 -0 -0 -0 -1 -0 -0 -0 -0 -0 -0 -0 -0 -0 -0 0 0 0 0 -0 0 0 0 0 0 0 0
-0 -0 -0 -0 -0 -0 -0 -0 -0 -0 -0 -0 -0 -0 -0 -0 -0 -0 -0 -0 -0 0 -0 -0 -0 -0 -0 -0 0 0 0 0 0 0 0 0 0 0 0 0 0 0 0
0 -0 -0 -0 -0 -0 -0 -0 0 -0 -0 -0 -0 -0 0 -0 -0 0 0 0 0 0 0 -0 0 0 0 0 0 0 0 0 0 0 0 -0 0 0 0 0 0 0 0
-0 -0 -0 -0 -0 -0 0 -0 0 -0 -0 -0 -0 -0 -0 -0 0 0 0 0 0 -0 0 -0 0 -0 0 -0 -0 -0 -0 -0 0 0 0 0 0 0 0 0 0 0 0
-0 0 -0 -0 -0 -0 -0 -0 0 0 0 -0 -0 -0 -0 -0 -0 -0 -0 0 -0 0 0 -0 -0 0 -0 0 -0 -0 -0 0 -0 0 0 -0 -0 0 0 0 0 0 0
-0 -0 -0 -0 -0 0 0 0 0 0 0 -0 0 -0 0 -0 0 -0 -0 0 0 -0 0 0 0 -0 0 -0 0 -0 -0 -0 0 -0 0 0 -0 0 0 0 0 0 0
-0 -0 -0 -0 -0 0 0 0 0 -0 -0 0 0 -0 0 0 0 0 -0 -0 0 -0 -0 0 -0 -0 -0 0 -0 0 -0 0 -0 -0 -0 0 0 0 0 0 0 0 0
-0 0 -0 0 -0 0 0 0 0 -0 -0 -0 -0 0 0 0 0 0 -0 -0 -0 -0 0 0 -0 0 -0 -0 -0 -0 -0 -0 0 -0 -0 -0 -0 0 0 0 -0 0 0
0 -0 0 0 0 0 0 0 0 -0 -0 -0 -0 0 0 0 0 -0 0 -0 0 -0 -0 0 0 0 0 -0 0 0 0 -0 0 0 -0 -0 -0 -0 0 -0 -0 -0 0
0 0 0 0 0 0 0 0 0 -0 0 -0 -0 -0 1 0 0 0 -0 0 0 0 -0 0 0 -0 0 0 -0 -0 0 0 -0 0 0 0 -0 -0 0 -0 0 -0 -0
0 0 0 0 1 1 0 0 0 0 0 0 -0 0 1 0 0 0 -0 0 0 0 0 -0 0 0 0 0 0 0 -0 0 0 0 0 0 -0 -0 -0 -0 0 0 -0
0 0 0 0 1 1 0 0 0 0 0 0 0 0 1 0 0 0 0 0 0 0 0 0 0 0 -0 0 0 0 0 0 0 -0 0 -0 0 -0 -0 -0 -0 -0 -0
0 0 -0 0 0 0 0 0 0 -0 -0 0 0 0 1 0 0 0 0 0 0 0 0 0 -0 0 0 0 0 0 0 0 -0 0 -0 -0 -0 -0 -0 -0 -1 -0 -0
-0 0 1 -0 0 0 0 0 0 0 -0 -0 0 0 0 0 0 -0 0 0 1 -0 0 0 -0 0 0 0 0 0 0 0 0 -0 0 -0 -0 0 -0 -0 -0 0 0
0 -0 0 0 0 0 0 0 0 0 0 -0 0 0 0 1 0 0 0 1 1 0 0 0 0 -0 -0 0 1 0 0 0 0 0 0 -0 -0 -0 0 0 -0 0 0
0 0 0 -0 -0 0 0 0 -0 0 0 -0 0 0 0 1 0 0 -0 1 1 0 0 0 -0 -0 -0 0 0 0 -0 0 0 0 0 0 0 -0 -0 -0 0 0 0
Wind_Speed_500mb
44 50 42 43 41 35 36 35 36 37 35 31 27 24 22 23 25 26 22 20 16 14 13 11 8 5 3 3 3 3 6 10 8 6 6 5 4 8 13 22 22 13 9
48 48 44 43 37 37 37 33 32 28 27 27 25 23 25 23 21 21 19 17 14 12 9 9 8 7 6 5 6 7 7 13 12 11 12 15 10 12 11 12 19 12 11
49 50 50 43 37 36 33 31 29 27 26 24 25 26 27 26 25 23 19 17 15 13 11 9 8 6 6 5 6 9 11 17 17 16 13 18 22 12 10 16 14 9 12
53 52 49 40 37 35 32 28 27 26 25 25 25 25 24 22 23 21 17 14 11 10 8 6 6 4 4 5 5 6 7 14 21 10 12 19 17 5 8 14 14 13 14
49 47 47 39 36 34 31 28 27 25 24 24 23 21 20 18 15 13 10 8 6 6 6 6 6 6 7 8 9 8 8 10 18 9 12 15 19 13 6 10 11 10 12
51 47 43 39 36 34 31 27 25 23 22 22 20 18 16 13 10 8 8 7 7 7 8 8 8 7 8 9 9 10 12 13 18 8 11 5 6 5 1 11 16 14 15
57 37 42 41 37 33 28 25 24 21 20 20 17 13 9 7 6 6 7 6 6 5 3 4 5 7 7 8 8 8 10 13 17 14 6 6 19 11 6 9 15 16 15
49 40 39 42 38 34 29 24 20 18 17 16 13 8 6 7 7 7 7 5 4 3 2 2 3 4 7 7 7 7 8 12 24 15 8 17 3 12 8 8 11 13 17
46 40 43 41 38 32 27 23 18 15 14 11 7 6 8 9 10 8 6 4 3 2 2 4 6 8 9 9 8 6 5 6 14 19 14 25 13 11 10 10 11 15 18
45 37 35 35 33 29 24 20 16 13 11 7 5 10 14 11 8 3 2 7 8 7 8 6 6 2 2 3 4 3 7 13 22 16 15 9 8 11 22 22 16 14 19
46 41 35 31 24 19 12 13 12 12 9 5 9 15 11 3 1 6 10 12 11 10 8 6 4 3 5 5 5 3 9 12 13 18 10 7 13 22 25 23 20 18 17
45 39 40 33 29 22 28 13 9 8 6 6 5 6 7 6 4 3 6 10 6 7 9 7 5 6 11 18 12 13 16 12 6 11 7 6 14 18 13 17 18 19 19
40 35 38 35 31 28 32 18 3 14 2 10 19 19 9 7 15 8 16 12 14 23 8 14 19 16 2 15 8 10 10 13 17 17 15 7 12 12 13 13 14 17 21
41 39 38 36 37 33 28 19 18 18 19 19 15 14 19 22 15 8 16 7 13 6 12 9 11 10 14 24 12 2 6 13 12 35 16 4 11 8 3 4 9 11 16
43 40 37 44 42 37 32 25 25 22 21 16 21 14 13 16 16 24 18 15 13 13 16 12 11 6 13 18 22 14 17 15 10 20 18 8 7 9 9 9 6 2 7
44 42 38 43 47 49 41 35 35 27 19 25 22 24 14 21 24 20 14 13 8 10 14 7 14 13 8 14 15 22 18 16 32 10 13 2 5 6 9 9 7 6 3
48 43 43 39 38 46 44 46 33 25 22 21 25 30 26 23 18 22 21 20 14 13 13 15 12 13 16 15 15 23 26 12 8 9 9 7 1 4 11 14 11 8 8
43 46 44 41 39 35 40 36 28 29 29 22 23 33 31 22 22 19 19 19 24 14 15 10 24 21 16 10 17 28 12 17 17 8 20 15 5 2 9 9 14 12 13
44 50 47 43 42 39 34 34 32 26 31 30 28 30 37 20 19 27 21 17 21 18 21 28 21 18 14 23 18 19 5 10 17 31 19 10 10 1 11 7 13 11 13
47 49 54 45 43 44 35 33 28 30 31 28 28 28 32 26 28 19 16 22 18 15 33 27 28 11 17 21 27 18 10 17 12 39 27 21 21 14 13 8 10 8 12
49 50 53 54 51 45 42 38 37 32 33 31 29 32 29 29 26 25 24 22 23 28 36 24 14 16 25 16 29 9 23 16 15 18 28 27 40 18 18 18 7 9 7
55 58 52 57 56 57 48 36 34 35 35 31 32 34 42 33 34 27 18 22 27 24 34 8 15 29 25 22 13 11 8 23 34 30 31 49 34 7 18 21 16 13 11
60 63 61 59 60 58 49 43 39 38 34 35 37 32 39 40 36 32 30 22 20 16 14 16 17 20 14 11 1 4 19 20 16 17 39 24 26 14 24 29 23 21 14
64 66 62 59 61 53 54 47 43 42 39 36 31 33 37 38 38 33 24 30 28 22 17 26 16 23 19 10 8 7 13 13 9 3 2 12 25 33 30 21 30 26 19
63 67 64 61 63 57 56 56 48 47 39 36 35 36 36 35 40 25 29 34 30 24 29 25 24 22 23 11 9 13 10 13 10 14 33 29 32 31 26 19 34 29 24
65 66 69 68 64 64 59 59 56 48 45 42 37 36 35 36 41 33 37 38 24 21 30 33 23 17 25 20 17 14 16 12 9 13 16 26 22 23 30 19 22 27 29
Wind_Direction_500mb
146 142 142 139 133 129 122 116 115 114 110 110 113 112 111 110 113 125 123 118 113 111 118 118 122 131 115 132 133 147 202 200 196 174 153 132 139 127 131 125 109 111 89
146 148 148 145 136 131 126 122 120 122 119 118 115 113 111 113 120 123 128 128 122 122 116 118 118 116 108 107 109 96 118 131 137 147 151 129 127 141 159 153 140 116 110
142 146 148 146 140 136 130 125 123 123 119 116 115 117 115 112 112 111 119 126 127 125 125 121 115 112 120 115 102 100 107 122 119 143 118 185 127 141 155 157 150 139 134
144 143 149 147 143 138 133 130 125 123 119 116 118 120 118 119 117 115 119 125 130 134 144 153 153 170 167 156 147 134 122 128 134 162 188 142 115 153 174 174 161 157 155
143 149 152 148 145 143 139 135 129 126 124 123 123 124 124 122 119 119 126 145 167 184 193 201 202 202 205 204 192 180 171 149 144 176 287 114 131 185 156 193 165 147 158
145 160 153 151 153 146 144 138 135 132 131 127 125 127 126 124 134 146 158 172 181 189 192 187 183 182 187 200 197 194 188 172 169 134 290 125 312 296 121 204 188 169 170
150 162 159 157 155 152 149 145 144 140 137 132 135 137 129 128 140 150 149 151 158 156 167 175 173 180 184 190 181 180 183 176 167 128 145 249 309 264 259 205 196 175 179
156 158 166 157 157 154 151 148 148 150 143 140 144 138 128 130 130 129 125 129 132 132 180 231 223 199 194 195 194 183 166 156 145 151 171 238 306 226 260 204 196 193 204
142 158 168 161 159 157 158 157 154 152 144 149 139 125 122 121 115 114 109 78 32 13 282 269 263 243 237 216 208 189 153 142 164 156 200 232 249 211 270 250 224 219 216
149 156 168 171 167 165 163 159 159 159 153 150 140 128 123 110 115 95 115 27 335 328 336 307 271 325 305 203 201 209 125 98 160 128 241 203 226 243 277 264 248 239 234
157 159 165 181 182 157 204 167 172 167 155 151 133 138 110 68 345 18 28 17 0 354 312 272 253 251 260 241 297 257 173 113 112 153 191 220 244 271 269 253 244 243 247
166 160 169 174 179 179 192 211 240 138 149 74 110 209 228 189 262 291 323 346 348 284 210 178 203 243 201 263 230 257 197 146 165 140 128 227 298 279 271 242 237 242 243
180 177 174 178 175 179 183 220 168 228 209 233 213 235 189 226 252 267 278 286 320 260 221 229 196 147 229 199 184 151 133 172 225 196 162 348 315 284 266 249 238 239 234
186 185 184 182 183 188 177 198 181 200 199 226 263 214 203 214 231 277 266 260 267 322 283 323 29 44 288 237 237 237 247 245 242 181 185 51 349 9 2 238 237 240 234
186 192 192 186 193 178 191 202 188 199 206 202 213 257 197 259 244 242 254 243 260 266 307 307 334 263 271 240 192 213 223 170 200 186 206 288 4 11 45 75 91 195 227
188 192 191 192 206 191 198 185 205 189 212 196 234 234 228 215 239 248 243 260 261 206 273 243 253 270 261 266 211 206 251 213 215 233 222 102 6 34 30 51 66 57 44
188 193 194 199 222 210 199 205 196 194 206 225 196 219 241 249 250 267 245 259 268 264 277 263 300 260 246 259 238 236 204 217 213 167 253 242 4 151 42 34 26 33 34
193 194 199 201 212 224 210 210 207 188 206 213 219 234 254 272 235 249 250 248 256 251 259 285 264 296 294 240 221 248 257 181 173 203 255 228 226 235 359 25 17 6 14
198 194 197 202 206 224 221 209 199 206 206 214 229 234 243 250 248 251 256 252 276 230 262 249 257 234 276 308 300 241 263 197 288 189 214 187 212 358 307 325 7 7 5
197 199 196 203 203 214 229 210 209 191 221 217 219 238 227 251 274 244 252 263 280 263 272 249 250 247 308 267 305 269 8 198 209 230 176 220 210 241 278 263 344 326 345
197 202 200 198 202 205 210 216 195 211 212 218 225 235 237 231 256 267 244 261 244 256 263 253 266 287 281 293 283 84 264 241 205 280 198 184 196 190 247 260 295 240 287
199 200 204 199 202 205 206 216 200 208 218 222 227 231 241 244 241 258 245 258 290 231 272 251 265 263 256 285 299 328 125 222 265 277 237 284 176 161 238 240 252 267 286
201 202 207 204 207 209 200 204 211 217 226 232 231 235 240 253 251 231 251 249 265 286 284 264 230 279 258 261 209 224 140 222 181 176 253 300 167 202 234 248 251 271 290
202 205 209 211 206 211 195 205 208 221 225 232 234 236 238 251 264 233 239 260 258 245 271 260 228 259 253 233 300 229 196 203 204 139 88 157 199 223 210 210 231 255 282
205 201 207 216 211 211 205 197 212 217 226 230 236 238 240 243 243 240 243 249 257 237 239 245 218 227 260 286 275 305 267 209 206 177 203 202 207 203 206 210 232 251 257
203 203 205 213 220 217 217 214 209 219 225 226 236 236 235 246 239 243 221 238 256 251 249 256 248 256 258 250 252 247 271 253 284 247 240 237 234 210 204 238 229 226 251
Wind_Speed_850mb
44 50 42 43 41 35 36 35 36 37 35 31 27 24 22 23 25 26 22 20 16 14 13 11 8 5 3 3 3 3 6 10 8 6 6 5 4 8 13 22 22 13 9
48 48 44 43 37 37 37 33 32 28 27 27 25 23 25 23 21 21 19 17 14 12 9 9 8 7 6 5 6 7 7 13 12 11 12 15 10 12 11 12 19 12 11
49 50 50 43 37 36 33 31 29 27 26 24 25 26 27 26 25 23 19 17 15 13 11 9 8 6 6 5 6 9 11 17 17 16 13 18 22 12 10 16 14 9 12
53 52 49 40 37 35 32 28 27 26 25 25 25 25 24 22 23 21 17 14 11 10 8 6 6 4 4 5 5 6 7 14 21 10 12 19 17 5 8 14 14 13 14
49 47 47 39 36 34 31 28 27 25 24 24 23 21 20 18 15 13 10 8 6 6 6 6 6 6 7 8 9 8 8 10 18 9 12 15 19 13 6 10 11 10 12
51 47 43 39 36 34 31 27 25 23 22 22 20 18 16 13 10 8 8 7 7 7 8 8 8 7 8 9 9 10 12 13 18 8 11 5 6 5 1 11 16 14 15
57 37 42 41 37 33 28 25 24 21 20 20 17 13 9 7 6 6 7 6 6 5 3 4 5 7 7 8 8 8 10 13 17 14 6 6 19 11 6 9 15 16 15
49 40 39 42 38 34 29 24 20 18 17 16 13 8 6 7 7 7 7 5 4 3 2 2 3 4 7 7 7 7 8 12 24 15 8 17 3 12 8 8 11 13 17
46 40 43 41 38 32 27 23 18 15 14 11 7 6 8 9 10 8 6 4 3 2 2 4 6 8 9 9 8 6 5 6 14 19 14 25 13 11 10 10 11 15 18
45 37 35 35 33 29 24 20 16 13 11 7 5 10 14 11 8 3 2 7 8 7 8 6 6 2 2 3 4 3 7 13 22 16 15 9 8 11 22 22 16 14 19
46 41 35 31 24 19 12 13 12 12 9 5 9 15 11 3 1 6 10 12 11 10 8 6 4 3 5 5 5 3 9 12 13 18 10 7 13 22 25 23 20 18 17
45 39 40 33 29 22 28 13 9 8 6 6 5 6 7 6 4 3 6 10 6 7 9 7 5 6 11 18 12 13 16 12 6 11 7 6 14 18 13 17 18 19 19
40 35 38 35 31 28 32 18 3 14 2 10 19 19 9 7 15 8 16 12 14 23 8 14 19 16 2 15 8 10 10 13 17 17 15 7 12 12 13 13 14 17 21
41 39 38 36 37 33 28 19 18 18 19 19 15 14 19 22 15 8 16 7 13 6 12 9 11 10 14 24 12 2 6 13 12 35 16 4 11 8 3 4 9 11 16
43 40 37 44 42 37 32 25 25 22 21 16 21 14 13 16 16 24 18 15 13 13 16 12 11 6 13 18 22 14 17 15 10 20 18 8 7 9 9 9 6 2 7
44 42 38 43 47 49 41 35 35 27 19 25 22 24 14 21 24 20 14 13 8 10 14 7 14 13 8 14 15 22 18 16 32 10 13 2 5 6 9 9 7 6 3
48 43 43 39 38 46 44 46 33 25 22 21 25 30 26 23 18 22 21 20 14 13 13 15 12 13 16 15 15 23 26 12 8 9 9 7 1 4 11 14 11 8 8
43 46 44 41 39 35 40 36 28 29 29 22 23 33 31 22 22 19 19 19 24 14 15 10 24 21 16 10 17 28 12 17 17 8 20 15 5 2 9 9 14 12 13
44 50 47 43 42 39 34 34 32 26 31 30 28 30 37 20 19 27 21 17 21 18 21 28 21 18 14 23 18 19 5 10 17 31 19 10 10 1 11 7 13 11 13
47 49 54 45 43 44 35 33 28 30 31 28 28 28 32 26 28 19 16 22 18 15 33 27 28 11 17 21 27 18 10 17 12 39 27 21 21 14 13 8 10 8 12
49 50 53 54 51 45 42 38 37 32 33 31 29 32 29 29 26 25 24 22 23 28 36 24 14 16 25 16 29 9 23 16 15 18 28 27 40 18 18 18 7 9 7
55 58 52 57 56 57 48 36 34 35 35 31 32 34 42 33 34 27 18 22 27 24 34 8 15 29 25 22 13 11 8 23 34 30 31 49 34 7 18 21 16 13 11
60 63 61 59 60 58 49 43 39 38 34 35 37 32 39 40 36 32 30 22 20 16 14 16 17 20 14 11 1 4 19 20 16 17 39 24 26 14 24 29 23 21 14
64 66 62 59 61 53 54 47 43 42 39 36 31 33 37 38 38 33 24 30 28 22 17 26 16 23 19 10 8 7 13 13 9 3 2 12 25 33 30 21 30 26 19
63 67 64 61 63 57 56 56 48 47 39 36 35 36 36 35 40 25 29 34 30 24 29 25 24 22 23 11 9 13 10 13 10 14 33 29 32 31 26 19 34 29 24
65 66 69 68 64 64 59 59 56 48 45 42 37 36 35 36 41 33 37 38 24 21 30 33 23 17 25 20 17 14 16 12 9 13 16 26 22 23 30 19 22 27 29
Wind_Direction_850mb
146 142 142 139 133 129 122 116 115 114 110 110 113 112 111 110 113 125 123 118 113 111 118 118 122 131 115 132 133 147 202 200 196 174 153 132 139 127 131 125 109 111 89
146 148 148 145 136 131 126 122 120 122 119 118 115 113 111 113 120 123 128 128 122 122 116 118 118 116 108 107 109 96 118 131 137 147 151 129 127 141 159 153 140 116 110
142 146 148 146 140 136 130 125 123 123 119 116 115 117 115 112 112 111 119 126 127 125 125 121 115 112 120 115 102 100 107 122 119 143 118 185 127 141 155 157 150 139 134
144 143 149 147 143 138 133 130 125 123 119 116 118 120 118 119 117 115 119 125 130 134 144 153 153 170 167 156 147 134 122 128 134 162 188 142 115 153 174 174 161 157 155
143 149 152 148 145 143 139 135 129 126 124 123 123 124 124 122 119 119 126 145 167 184 193 201 202 202 205 204 192 180 171 149 144 176 287 114 131 185 156 193 165 147 158
145 160 153 151 153 146 144 138 135 132 131 127 125 127 126 124 134 146 158 172 181 189 192 187 183 182 187 200 197 194 188 172 169 134 290 125 312 296 121 204 188 169 170
150 162 159 157 155 152 149 145 144 140 137 132 135 137 129 128 140 150 149 151 158 156 167 175 173 180 184 190 181 180 183 176 167 128 145 249 309 264 259 205 196 175 179
156 158 166 157 157 154 151 148 148 150 143 140 144 138 128 130 130 129 125 129 132 132 180 231 223 199 194 195 194 183 166 156 145 151 171 238 306 226 260 204 196 193 204
142 158 168 161 159 157 158 157 154 152 144 149 139 125 122 121 115 114 109 78 32 13 282 269 263 243 237 216 208 189 153 142 164 156 200 232 249 211 270 250 224 219 216
149 156 168 171 167 165 163 159 159 159 153 150 140 128 123 110 115 95 115 27 335 328 336 307 271 325 305 203 201 209 125 98 160 128 241 203 226 243 277 264 248 239 234
157 159 165 181 182 157 204 167 172 167 155 151 133 138 110 68 345 18 28 17 0 354 312 272 253 251 260 241 297 257 173 113 112 153 191 220 244 271 269 253 244 243 247
166 160 169 174 179 179 192 211 240 138 149 74 110 209 228 189 262 291 323 346 348 284 210 178 203 243 201 263 230 257 197 146 165 140 128 227 298 279 271 242 237 242 243
180 177 174 178 175 179 183 220 168 228 209 233 213 235 189 226 252 267 278 286 320 260 221 229 196 147 229 199 184 151 133 172 225 196 162 348 315 284 266 249 238 239 234
186 185 184 182 183 188 177 198 181 200 199 226 263 214 203 214 231 277 266 260 267 322 283 323 29 44 288 237 237 237 247 245 242 181 185 51 349 9 2 238 237 240 234
186 192 192 186 193 178 191 202 188 199 206 202 213 257 197 259 244 242 254 243 260 266 307 307 334 263 271 240 192 213 223 170 200 186 206 288 4 11 45 75 91 195 227
188 192 191 192 206 191 198 185 205 189 212 196 234 234 228 215 239 248 243 260 261 206 273 243 253 270 261 266 211 206 251 213 215 233 222 102 6 34 30 51 66 57 44
188 193 194 199 222 210 199 205 196 194 206 225 196 219 241 249 250 267 245 259 268 264 277 263 300 260 246 259 238 236 204 217 213 167 253 242 4 151 42 34 26 33 34
193 194 199 201 212 224 210 210 207 188 206 213 219 234 254 272 235 249 250 248 256 251 259 285 264 296 294 240 221 248 257 181 173 203 255 228 226 235 359 25 17 6 14
198 194 197 202 206 224 221 209 199 206 206 214 229 234 243 250 248 251 256 252 276 230 262 249 257 234 276 308 300 241 263 197 288 189 214 187 212 358 307 325 7 7 5
197 199 196 203 203 214 229 210 209 191 221 217 219 238 227 251 274 244 252 263 280 263 272 249 250 247 308 267 305 269 8 198 209 230 176 220 210 241 278 263 344 326 345
197 202 200 198 202 205 210 216 195 211 212 218 225 235 237 231 256 267 244 261 244 256 263 253 266 287 281 293 283 84 264 241 205 280 198 184 196 190 247 260 295 240 287
199 200 204 199 202 205 206 216 200 208 218 222 227 231 241 244 241 258 245 258 290 231 272 251 265 263 256 285 299 328 125 222 265 277 237 284 176 161 238 240 252 267 286
201 202 207 204 207 209 200 204 211 217 226 232 231 235 240 253 251 231 251 249 265 286 284 264 230 279 258 261 209 224 140 222 181 176 253 300 167 202 234 248 251 271 290
202 205 209 211 206 211 195 205 208 221 225 232 234 236 238 251 264 233 239 260 258 245 271 260 228 259 253 233 300 229 196 203 204 139 88 157 199 223 210 210 231 255 282
205 201 207 216 211 211 205 197 212 217 226 230 236 238 240 243 243 240 243 249 257 237 239 245 218 227 260 286 275 305 267 209 206 177 203 202 207 203 206 210 232 251 257
203 203 205 213 220 217 217 214 209 219 225 226 236 236 235 246 239 243 221 238 256 251 249 256 248 256 258 250 252 247 271 253 284 247 240 237 234 210 204 238 229 226 251